Previsão horária em Center Point

Hoje, 1 Agosto, Domingo

Tempo Temperatura Precipitação Vento Pressão Humidade
00:00 +26°C° 0 mm 2 m/s 738 mmHg 78%
01:00 +26°C° 0 mm 1 m/s 738 mmHg 78%
02:00 +25°C° 0 mm 1 m/s 738 mmHg 79%
03:00 +25°C° 0 mm 1 m/s 738 mmHg 80%
04:00 +25°C° 0 mm 1 m/s 739 mmHg 81%
05:00 +25°C° 0 mm 1 m/s 739 mmHg 82%
06:00 +25°C° 0 mm 1 m/s 739 mmHg 84%
07:00 +27°C° 0 mm 2 m/s 739 mmHg 77%
08:00 +29°C° 0 mm 2 m/s 739 mmHg 69%
09:00 +31°C° 0 mm 2 m/s 739 mmHg 62%
10:00 +33°C° 0 mm 3 m/s 739 mmHg 59%
11:00 +34°C° 0 mm 3 m/s 739 mmHg 57%
12:00 +34°C° 0 mm 4 m/s 739 mmHg 54%
13:00 +34°C° 0 mm 3 m/s 739 mmHg 56%
14:00 +34°C° 0 mm 3 m/s 739 mmHg 58%
15:00 +33°C° 0 mm 3 m/s 738 mmHg 60%
16:00 +31°C° 0 mm 3 m/s 738 mmHg 64%
17:00 +30°C° 0 mm 3 m/s 738 mmHg 69%
18:00 +29°C° 0 mm 3 m/s 738 mmHg 74%
19:00 +28°C° 0 mm 2 m/s 738 mmHg 79%
20:00 +26°C° 0 mm 2 m/s 738 mmHg 84%
21:00 +25°C° 0 mm 1 m/s 739 mmHg 89%
22:00 +24°C° 0 mm 1 m/s 739 mmHg 89%
23:00 +24°C° 0 mm 1 m/s 739 mmHg 88%

Amanhã, 2 Agosto, Segunda-feira

Tempo Temperatura Precipitação Vento Pressão Humidade
00:00 +24°C° 0 mm 1 m/s 739 mmHg 88%
01:00 +23°C° 0 mm 1 m/s 739 mmHg 87%
02:00 +23°C° 0 mm 1 m/s 739 mmHg 87%
03:00 +22°C° 0 mm 1 m/s 739 mmHg 86%
04:00 +22°C° 0.2 mm 1 m/s 739 mmHg 87%
05:00 +22°C° 0.2 mm 1 m/s 739 mmHg 88%
06:00 +22°C° 0.2 mm 1 m/s 740 mmHg 89%
07:00 +23°C° 0 mm 1 m/s 740 mmHg 87%
08:00 +23°C° 0 mm 1 m/s 740 mmHg 85%
09:00 +24°C° 0 mm 1 m/s 740 mmHg 83%
10:00 +24°C° 0 mm 1 m/s 740 mmHg 81%
11:00 +24°C° 0 mm 1 m/s 740 mmHg 80%
12:00 +24°C° 0 mm 1 m/s 740 mmHg 79%
13:00 +24°C° 0.1 mm 1 m/s 739 mmHg 81%
14:00 +23°C° 0.1 mm 1 m/s 739 mmHg 83%
15:00 +23°C° 0.1 mm 1 m/s 739 mmHg 86%
16:00 +23°C° 0 mm 1 m/s 739 mmHg 86%
17:00 +23°C° 0 mm 1 m/s 739 mmHg 85%
18:00 +23°C° 0 mm 1 m/s 738 mmHg 85%
19:00 +22°C° 0 mm 1 m/s 739 mmHg 86%
20:00 +20°C° 0 mm 0 m/s 739 mmHg 86%
21:00 +20°C° 0 mm 0 m/s 739 mmHg 87%
22:00 +19°C° 0 mm 0 m/s 739 mmHg 88%
23:00 +19°C° 0 mm 0 m/s 739 mmHg 90%

Depois de amanhã, 3 Agosto, Terça-feira

Tempo Temperatura Precipitação Vento Pressão Humidade
00:00 +19°C° 0 mm 0 m/s 738 mmHg 91%
01:00 +18°C° 0 mm 0 m/s 738 mmHg 92%
02:00 +18°C° 0 mm 0 m/s 738 mmHg 93%
03:00 +18°C° 0 mm 0 m/s 737 mmHg 94%
04:00 +18°C° 0 mm 0 m/s 738 mmHg 93%
05:00 +18°C° 0 mm 0 m/s 738 mmHg 91%
06:00 +19°C° 0 mm 0 m/s 738 mmHg 90%
07:00 +23°C° 0 mm 1 m/s 738 mmHg 80%
08:00 +25°C° 0 mm 1 m/s 739 mmHg 70%
09:00 +27°C° 0 mm 1 m/s 739 mmHg 60%
10:00 +29°C° 0 mm 1 m/s 739 mmHg 55%
11:00 +30°C° 0 mm 2 m/s 738 mmHg 51%
12:00 +31°C° 0 mm 2 m/s 738 mmHg 46%
13:00 +31°C° 0 mm 2 m/s 738 mmHg 45%
14:00 +31°C° 0 mm 3 m/s 738 mmHg 44%
15:00 +33°C° 0 mm 3 m/s 737 mmHg 43%
16:00 +30°C° 0 mm 3 m/s 737 mmHg 50%
17:00 +28°C° 0 mm 3 m/s 737 mmHg 58%
18:00 +27°C° 0 mm 3 m/s 737 mmHg 65%
19:00 +26°C° 0 mm 2 m/s 738 mmHg 69%
20:00 +24°C° 0 mm 2 m/s 738 mmHg 73%
21:00 +23°C° 0 mm 1 m/s 738 mmHg 76%
22:00 +23°C° 0 mm 1 m/s 738 mmHg 77%
23:00 +22°C° 0 mm 1 m/s 738 mmHg 78%

4 Agosto, Quarta-feira

Tempo Temperatura Precipitação Vento Pressão Humidade
00:00 +22°C° 0 mm 1 m/s 738 mmHg 79%
01:00 +21°C° 0 mm 1 m/s 738 mmHg 80%
02:00 +21°C° 0 mm 1 m/s 738 mmHg 82%
03:00 +21°C° 0 mm 1 m/s 738 mmHg 83%
04:00 +21°C° 0.1 mm 1 m/s 738 mmHg 86%
05:00 +21°C° 0.1 mm 1 m/s 738 mmHg 89%
06:00 +21°C° 0.1 mm 1 m/s 739 mmHg 93%
07:00 +21°C° 0.2 mm 2 m/s 739 mmHg 88%
08:00 +24°C° 0.2 mm 2 m/s 739 mmHg 84%
09:00 +25°C° 0.2 mm 2 m/s 740 mmHg 79%
10:00 +27°C° 0.3 mm 2 m/s 740 mmHg 74%
11:00 +28°C° 0.3 mm 2 m/s 740 mmHg 68%
12:00 +29°C° 0.3 mm 2 m/s 740 mmHg 63%
13:00 +30°C° 0.1 mm 1 m/s 739 mmHg 58%
14:00 +31°C° 0.1 mm 1 m/s 739 mmHg 52%
15:00 +30°C° 0.1 mm 0 m/s 738 mmHg 47%
16:00 +30°C° 0.1 mm 1 m/s 739 mmHg 55%
17:00 +28°C° 0.1 mm 1 m/s 739 mmHg 62%
18:00 +27°C° 0.1 mm 1 m/s 739 mmHg 70%
19:00 +26°C° 0.2 mm 1 m/s 739 mmHg 74%
20:00 +25°C° 0.2 mm 1 m/s 739 mmHg 79%
21:00 +24°C° 0.2 mm 1 m/s 739 mmHg 84%
22:00 +23°C° 0.2 mm 1 m/s 740 mmHg 86%
23:00 +23°C° 0.2 mm 1 m/s 740 mmHg 89%

5 Agosto, Quinta-feira

Tempo Temperatura Precipitação Vento Pressão Humidade
00:00 +22°C° 0.2 mm 1 m/s 740 mmHg 92%
01:00 +22°C° 0.2 mm 1 m/s 740 mmHg 93%
02:00 +22°C° 0.2 mm 1 m/s 740 mmHg 94%
03:00 +21°C° 0.2 mm 1 m/s 740 mmHg 95%
04:00 +21°C° 0.1 mm 1 m/s 740 mmHg 95%
05:00 +22°C° 0.1 mm 1 m/s 740 mmHg 95%
06:00 +21°C° 0.1 mm 2 m/s 741 mmHg 96%
07:00 +24°C° 0 mm 2 m/s 741 mmHg 87%
08:00 +26°C° 0 mm 2 m/s 741 mmHg 78%
09:00 +27°C° 0 mm 3 m/s 742 mmHg 70%
10:00 +29°C° 0.1 mm 2 m/s 741 mmHg 63%
11:00 +30°C° 0.1 mm 2 m/s 741 mmHg 57%
12:00 +32°C° 0.1 mm 2 m/s 741 mmHg 50%
13:00 +31°C° 0 mm 2 m/s 740 mmHg 53%
14:00 +31°C° 0 mm 2 m/s 740 mmHg 56%
15:00 +30°C° 0 mm 1 m/s 740 mmHg 58%
16:00 +29°C° 0.2 mm 1 m/s 740 mmHg 65%
17:00 +28°C° 0.2 mm 1 m/s 740 mmHg 71%
18:00 +26°C° 0.2 mm 1 m/s 740 mmHg 78%
19:00 +26°C° 0.4 mm 1 m/s 740 mmHg 81%
20:00 +25°C° 0.4 mm 1 m/s 740 mmHg 84%
21:00 +24°C° 0.4 mm 1 m/s 741 mmHg 88%
22:00 +24°C° 0 mm 1 m/s 740 mmHg 90%
23:00 +23°C° 0 mm 1 m/s 740 mmHg 91%

6 Agosto, Sexta-feira

Tempo Temperatura Precipitação Vento Pressão Humidade
00:00 +23°C° 0 mm 2 m/s 740 mmHg 93%
01:00 +23°C° 0 mm 1 m/s 740 mmHg 94%
02:00 +22°C° 0 mm 1 m/s 740 mmHg 95%
03:00 +22°C° 0 mm 1 m/s 740 mmHg 96%
04:00 +22°C° 0.1 mm 1 m/s 741 mmHg 96%
05:00 +22°C° 0.1 mm 1 m/s 741 mmHg 96%
06:00 +22°C° 0.1 mm 1 m/s 741 mmHg 96%
07:00 +25°C° 0 mm 1 m/s 741 mmHg 87%
08:00 +27°C° 0 mm 1 m/s 741 mmHg 78%
09:00 +29°C° 0 mm 1 m/s 742 mmHg 68%
10:00 +31°C° 0 mm 1 m/s 741 mmHg 60%
11:00 +32°C° 0 mm 1 m/s 741 mmHg 51%
12:00 +35°C° 0 mm 2 m/s 741 mmHg 43%
13:00 +33°C° 0 mm 1 m/s 740 mmHg 46%
14:00 +32°C° 0 mm 1 m/s 740 mmHg 50%
15:00 +31°C° 0 mm 1 m/s 740 mmHg 54%
16:00 +30°C° 0 mm 1 m/s 740 mmHg 59%
17:00 +29°C° 0 mm 1 m/s 740 mmHg 63%
18:00 +28°C° 0 mm 1 m/s 740 mmHg 67%
19:00 +27°C° 0.1 mm 1 m/s 740 mmHg 71%
20:00 +27°C° 0.1 mm 1 m/s 740 mmHg 74%
21:00 +26°C° 0.1 mm 1 m/s 740 mmHg 78%
22:00 +25°C° 0.1 mm 1 m/s 740 mmHg 82%
23:00 +24°C° 0.1 mm 1 m/s 740 mmHg 86%
Mostrar mais

Necessitamos do seu Consentimento

A Meteoprog e os seus Fornecedores de Serviços podem armazenar e aceder a dados pessoais como cookies, identificadores do dispositivo ou outras tecnologias semelhantes existentes no seu dispositivo e processar estes dados para personalizar conteúdos e anúncios, assim como funcionalidades nas redes sociais e análise de tráfego.

  • Armazenar e/ou aceder a informações no seu dispositivo

    Os cookies, identificadores do dispositivo ou outras informações podem ser armazenados ou acedidos no seu dispositivo, para os fins acima indicados.

  • Anúncios e conteúdos personalizados, medição de anúncios e conteúdos, dados sobre o público-alvo e desenvolvimento de produtos

    Os anúncios e os conteúdos podem ser personalizados com base num perfil. Podem ser adicionados dados adicionais para uma maior personalização dos anúncios e dos conteúdos. A eficácia dos anúncios e dos conteúdos pode ser medida. Podem ser obtidas informações sobre o público que visualizou os anúncios e os conteúdos. Estes dados podem ser usados para desenvolver ou melhorar sistemas, softwares ou a experiência do utilizador.

Ao clicar em "Eu concordo”, permitirá o uso de cookies, identificadores do dispositivo e web beacons mencionados ou outras tecnologias semelhantes. As configurações do navegador do seu dispositivo podem ser alteradas.

Para certos fins, podem ser invocados interesses legítimos ao invés de consentimento. Pode ler mais informação sobre este assunto na nossa Política de Privacidade e Cookies.